Terug naar catalogus

NIMBUS 2 DEB

ActiefSSO
NORAD 59974·DEBRIS·🇺🇸 United States

Gelanceerd May 15, 1966 vanaf Vandenberg Space Force Base

Loading…

Volgende Passages (komende 24 uur)

TLE

VersSource: Space-Track

Epoch: Sep 12, 2026, 04:05 UTC

1 59974U 66040CD  26255.17024251  .00001386  00000-0  24499-2 0  9990
2 59974 100.1467  57.3440 0037150 323.1433  36.7144 13.44334154469470

Volg NIMBUS 2 DEB in realtime met AllMySat

Download on the App Store